Location: Newark
(33.6439°N, 114.9881°W)
Time: 00:08:47
(UTC+00:00)

Tiros 1 - Pass Details

Date: 26 July 2019
Orbit: 631 x 664 km, 48.4° (Epoch: 24 August)

Event Time Altitude Azimuth Distance (km) Brightness Sun altitude
Rises 16:04:13 0° 204° (SSW) 2,946 10.4 38.9°
Reaches altitude 10° 16:06:45 10° 193° (SSW) 2,045 9.7 39.4°
Maximum altitude 16:10:52 30° 132° (SE) 1,165 9.6 40.3°
Drops below altitude 10° 16:15:02 10° 72° (ENE) 2,070 10.8 41.1°
Sets 16:17:36 0° 62° (ENE) 2,989 11.2 41.7°
